HST 1 20580U 90037B 26146.56168332 .00006127 00000+0 19424-3 0 9995 2 20580 28.4733 228.3470 0001307 263.5231 96.5216 15.30496544785250 POLAR 1 23802U 96013A 26145.70040949 .00000012 00000+0 00000+0 0 9996 2 23802 79.8309 227.3152 6447925 209.8528 88.4700 1.29846065144564 SWAS 1 25560U 98071A 26146.54618927 .00003667 00000+0 23501-3 0 9999 2 25560 69.8961 283.3202 0008576 280.0503 79.9693 15.09438444494005 CXO 1 25867U 99040B 26148.21998181 .00000426 00000+0 00000+0 0 9990 2 25867 55.8621 117.1917 7866111 310.4222 0.0280 0.37805843 17240 XMM-NEWTON 1 25989U 99066A 26147.40616136 -.00000041 00000+0 00000+0 0 9994 2 25989 64.5922 283.2490 4679187 65.2783 0.1338 0.50128828 22906 TERRA 1 25994U 99068A 26146.59388875 .00000361 00000+0 82554-4 0 9990 2 25994 97.9469 196.9949 0001087 329.0424 152.4688 14.61082825406452 CLUSTER II-FM7 (SAMBA) 1 26410U 00041A 26148.05847987 .00003702 00000+0 00000+0 0 9997 2 26410 149.8742 47.2072 9027932 264.1302 0.1148 0.44849367 20216 CLUSTER II-FM8 (TANGO) 1 26464U 00045B 26143.67364213 .00003023 00000+0 00000+0 0 9995 2 26464 150.1185 47.6077 9031581 264.3140 3.6732 0.44403233 20201 ODIN 1 26702U 01007A 26146.58274945 .00125328 00000+0 10830-2 0 9992 2 26702 97.3897 186.2456 0004859 170.3145 189.8211 15.68806633386004 TIMED 1 26998U 01055B 26146.53130186 .00001191 00000+0 11187-3 0 9993 2 26998 74.0676 278.6196 0000238 144.6946 215.4255 14.95230693327583 CORIOLIS 1 27640U 03001A 26146.56437450 .00000110 00000+0 72188-4 0 9997 2 27640 98.7129 153.7793 0012785 275.8823 84.0896 14.19938185211154 SORCE 1 27651U 03004A 26146.35486545 .00003311 00000+0 24809-3 0 9990 2 27651 39.9926 26.2264 0018715 256.7565 103.1141 15.03572320268613 MOST 1 27843U 03031D 26146.59945917 .00000069 00000+0 51728-4 0 9990 2 27843 98.7047 154.6267 0009070 320.2156 39.8355 14.21317296187642 SCISAT 1 1 27858U 03036A 26146.54845461 .00000489 00000+0 67131-4 0 9990 2 27858 73.9299 214.3346 0008660 281.7703 78.2502 14.81421539228242 SWIFT 1 28485U 04047A 26146.22753358 .00052849 00000+0 48364-3 0 9991 2 28485 20.5542 354.0070 0003353 12.9859 347.0673 15.65986244183411 HINODE (SOLAR-B) 1 29479U 06041A 26146.58735698 .00000723 00000+0 13277-3 0 9996 2 29479 98.0553 163.0584 0017390 1.7862 358.3402 14.68586037 51700 SHIJIAN-6 02A (SJ-6 02A) 1 29505U 06046A 26146.65141655 .00007975 00000+0 41094-3 0 9997 2 29505 97.6378 187.5597 0002642 182.3051 177.8170 15.16652569 69001 SHIJIAN-6 02B (SJ-6 02B) 1 29506U 06046B 26146.61894870 .00001588 00000+0 12790-3 0 9993 2 29506 97.7166 175.8110 0013096 125.9159 234.3282 15.01309229 67508 FGRST (GLAST) 1 33053U 08029A 26145.89961985 .00003307 00000+0 11979-3 0 9998 2 33053 25.5841 359.2193 0008664 64.5189 295.6245 15.23802853992437 SDO 1 36395U 10005A 26146.36480424 -.00000070 00000+0 00000+0 0 9998 2 36395 34.6089 86.6704 0001455 37.2841 149.4013 1.00271598 59840 CRYOSAT 2 1 36508U 10013A 26146.57841756 .00000216 00000+0 53016-4 0 9996 2 36508 92.0334 272.0518 0002422 85.0179 275.1305 14.51901651854946 X-SAT 1 37389U 11015C 26146.60223179 -.00000091 00000+0 -21368-4 0 9992 2 37389 98.3499 124.6559 0015104 49.5461 310.7034 14.25198101784601 GCOM-W1 (SHIZUKU) 1 38337U 12025A 26146.41153361 .00000469 00000+0 11424-3 0 9990 2 38337 98.2016 87.2984 0001792 91.0646 20.5697 14.57100431745860 NUSTAR 1 38358U 12031A 26146.66668981 .00020535 00000+0 12186-2 0 9997 2 38358 6.0259 195.5423 0007772 158.2536 86.4669 15.08557042 1303 NEOSSAT 1 39089U 13009D 26146.46727467 .00000167 00000+0 72573-4 0 9995 2 39089 98.4174 327.0172 0010114 316.0609 43.9772 14.35817839693625 BRITE-AUSTRIA 1 39091U 13009F 26146.47669554 .00000180 00000+0 75738-4 0 9992 2 39091 98.3990 326.4506 0009191 309.6490 50.3885 14.36532195693937 IRIS 1 39197U 13033A 26146.54809899 .00001009 00000+0 12172-3 0 9995 2 39197 97.9344 345.8925 0025251 32.7243 327.5530 14.85833562697168 HISAKI (SPRINT-A) 1 39253U 13049A 26146.54951840 .00000141 00000+0 99205-4 0 9998 2 39253 29.7218 330.0174 0136819 201.5393 157.9380 13.55541838628486 CASSIOPE 1 39265U 13055A 26146.56395031 .00032974 -65266-6 37036-3 0 9999 2 39265 80.9139 92.9369 0299206 134.8930 227.7021 15.23294611664372 STSAT-3 1 39422U 13066G 26146.60445457 .00002952 00000+0 22608-3 0 9998 2 39422 97.6162 116.8475 0010412 104.8755 255.3624 15.02588043680965 SWARM B 1 39451U 13067A 26146.59421590 .00003135 00000+0 11218-3 0 9990 2 39451 87.7446 348.8783 0003268 97.9240 262.2380 15.28401290679941 SWARM A 1 39452U 13067B 26146.53700829 .00010851 00000+0 18994-3 0 9991 2 39452 87.3336 64.2789 0003172 86.6282 273.5342 15.50451571702892 SWARM C 1 39453U 13067C 26146.53691325 .00010874 00000+0 19033-3 0 9992 2 39453 87.3336 62.8602 0003164 86.5945 273.5678 15.50453567702852 BRITE-CA1 (TORONTO) 1 40020U 14033L 26146.29540680 .00000674 00000+0 10894-3 0 9991 2 40020 97.9709 275.6310 0078275 348.0159 11.9184 14.72642275638991 OCO 2 1 40059U 14035A 26146.52442540 .00000371 00000+0 92428-4 0 9995 2 40059 98.2012 88.1489 0001435 88.4377 271.6986 14.57089780632896 BRITE-PL2 (HEWELIUSZ) 1 40119U 14049B 26146.54714824 .00001730 00000+0 16547-3 0 9993 2 40119 97.9076 258.3845 0014116 175.8257 184.3084 14.94499279638214 MMS 1 1 40482U 15011A 26146.66668981 -.00000110 00000+0 00000+0 0 9996 2 40482 71.8928 349.0849 8343809 166.9515 263.2669 0.28363351 1387 MMS 2 1 40483U 15011B 26146.66668981 -.00000110 00000+0 00000+0 0 9997 2 40483 71.8919 349.0868 8344564 166.9564 263.2574 0.28362566 1384 MMS 3 1 40484U 15011C 26146.66668981 -.00000110 00000+0 00000+0 0 9998 2 40484 71.8948 349.0913 8343767 166.9509 263.2554 0.28362528 1387 MMS 4 1 40485U 15011D 26146.66668981 -.00000110 00000+0 00000+0 0 9999 2 40485 71.8913 349.0870 8343352 166.9586 263.2438 0.28362536 1387 ASTROSAT 1 40930U 15052A 26145.15090552 .00001511 00000+0 10243-3 0 9994 2 40930 5.9989 321.1626 0007588 63.2978 296.7926 14.82459854576405 DAMPE 1 41173U 15078A 26146.59652633 .00001527 00000+0 53952-4 0 9997 2 41173 97.4563 151.9589 0012803 145.4872 214.7202 15.30722310581247 PISAT 1 41784U 16059B 26146.55108832 .00000864 00000+0 15490-3 0 9995 2 41784 97.8178 147.9346 0027474 275.0642 84.7428 14.68939317516567 HXMT (HUIYAN) 1 42758U 17034A 26146.62334270 .00005495 00000+0 27160-3 0 9998 2 42758 43.0143 303.0977 0031399 5.9615 354.1601 15.18252775494384 FLYING LAPTOP 1 42831U 17042G 26146.58732699 .00003198 00000+0 25431-3 0 9998 2 42831 97.4593 302.9669 0018337 193.8259 166.2466 15.00982192483217 ZHANGHENG 1-01 (CSES-1) 1 43194U 18015C 26146.62256112 .00006820 00000+0 30951-3 0 9996 2 43194 97.6853 311.8574 0015745 343.2132 16.8579 15.21037377461362 SALSAT 1 46495U 20068K 26146.55796392 .00008098 00000+0 28625-3 0 9999 2 46495 97.8852 148.3122 0010466 28.4463 331.7345 15.29430828312053 IXPE 1 49954U 21121A 26146.58335648 .00010247 00000+0 55631-3 0 9995 2 49954 0.2300 120.5303 0006799 115.2132 143.5907 15.10019924 5633 SMILE 1 69123U 26109A 26144.65318427 -.00001976 00000+0 -42379-3 0 9994 2 69123 70.0007 229.2745 0009123 259.5159 100.4951 14.57062785 802